Location: Praha
(50.0830°N, 14.4670°E)
Time: 00:59:25
(UTC+01:00)

ISS - Pass Details

Date: 26 November 2020
Orbit: 418 x 420 km, 51.6° (Epoch: 05 December)

Event Time Altitude Azimuth Distance (km) Brightness Sun altitude
Rises 18:09:28 0° 259° (WSW) 2,360 1.7 -19.1°
Reaches altitude 10° 18:11:34 10° 260° (W) 1,497 0.3 -19.5°
Maximum altitude 18:14:55 78° 346° (NNW) 432 -3.8 -20.0°
Enters shadow 18:14:57 78° 355° (N) 432 -3.8 -20.0°
